Submittal Forms
Current Contests
Recent Contests

Club Activity Tracker - Western Washington DX Club (from club selection on form)

Recent postings for the selected club or group are listed below. Other than the call used, all calls listed are only those associated with the club or group. Click on a call to see the details of the posting.
Status Key: new=new posting, update=update prior posting, move=change club/group, delete=delete prior posting.

Sort by   for past

TimestampCallContestClassPowerScoreStatus
2020-05-28 21:55:31W7OMCWopsTSingle OpLP6,630new5615
2020-05-28 04:04:55K7RLCWopsTSingle OpHP22,379new5615
2020-05-28 04:02:41WT8PCWopsTSingle OpLP1,225new5615
2020-05-28 04:01:24WC7QCWopsTSingle OpHP15,129new5615
2020-05-27 22:39:50W7OMCWopsTSingle OpLP3,360new5613
2020-05-27 22:38:09W7OMCWopsTSingle OpLP3,600new5614
2020-05-27 20:06:51N7JPCWopsTSingle OpLP441new5614
2020-05-27 20:04:06K7RLCWopsTSingle OpHP20,148new5614
2020-05-27 20:01:38WC7QCWopsTSingle OpHP7,744new5614
2020-05-27 19:49:09WT8PCWopsTSingle OpLP100new5614
 
2020-05-22 02:20:08W70MNCCC RY-SprintSingle OpLP480new5597
2020-05-21 04:10:19K7RLCWopsTSingle OpHP16,819new5594
2020-05-21 04:05:54NR5WCWopsTSingle OpLP49new5594
2020-05-21 04:02:27W7OMCWopsTSingle OpLP6,150new5594
2020-05-21 03:01:48NR5WCWopsTSingle OpLP25new5593
2020-05-20 20:04:38K7RLCWopsTSingle OpHP24,021new5593
2020-05-20 20:04:02N7JPCWopsTSingle OpLP225new5593
2020-05-20 20:03:16WT8PCWopsTSingle OpLP289new5593
2020-05-20 20:01:46WC7QCWopsTSingle OpHP14,400new5593
2020-05-20 14:10:41WT8PCWopsTSingle OpLP169new5592
 
2020-05-20 14:01:43W6OMCWopsTSingle OpLP3,245new5592
2020-05-17 00:26:40K6KRHamventionSingle OpHP20new5569
2020-05-17 00:20:14W7FCLHamventionSingle OpLP24new5569
2020-05-16 23:57:48K7RLHamventionSingle OpHP428new5569
2020-05-16 23:49:50WT8PHamventionSingle OpLP15update5569
2020-05-16 23:48:10K7WAHamventionSingle OpLP56update5569
2020-05-14 17:53:29W7OMCWopsTSingle OpLP5,041new5576
2020-05-14 04:07:04WT8PCWopsTSingle OpLP676new5576
2020-05-14 04:04:55K7RLCWopsTSingle OpHP25,748new5576
2020-05-13 20:20:35W7OMCWopsTSingle OpLP2,250new5574
 
2020-05-13 20:07:55N7JPCWopsTSingle OpLP576new5575
2020-05-13 20:02:27W7OMCWopsTSingle OpLP4,900new5575
2020-05-13 14:02:47WT8PCWopsTSingle OpLP196new5574
2020-05-13 14:02:16WC7QCWopsTSingle OpHP144new5574
2020-05-10 13:45:34K7IDX/7(@K7IDX)50SprngSprntSingle OpLP1new5567
2020-05-10 12:08:47W7CDVolta RTTYSOABLP1,644,624new5563
2020-05-10 03:43:34W6OATArQPSOMixedHP606new5565
2020-05-08 03:10:59N7JP7QPSOCWHP10,764new5544
2020-05-07 17:13:27W7OMCWopsTSingle OpLP4,686new5559
2020-05-07 04:09:10N7JPCWopsTSingle OpLP225new5559
 
2020-05-07 04:03:48K7RLCWopsTSingle OpHP25,905new5559
2020-05-07 04:02:24WT8PCWopsTSingle OpLP361new5559
2020-05-07 04:01:11WC7QCWopsTSingle OpHP16,384new5559
2020-05-07 02:57:34W7OMCWopsTSingle OpLP4,096new5558
2020-05-07 01:57:20W6OATNewEngQPSingle OpHP3,808new5547
2020-05-07 01:53:15W6OATInQPDistributed M/MHP2,175new5545
2020-05-07 01:41:06W6OATDeQPSingle OpHP240new5546
2020-05-06 20:14:10N7JPCWopsTSingle OpLP256new5558
2020-05-06 20:04:25K7RLCWopsTSingle OpHP24,960new5558
2020-05-06 20:02:09WC7QCWopsTSingle OpHP17,956new5558
 
2020-05-06 18:56:51W7OMCWopsTSingle OpLP2,150new5557
2020-05-06 17:01:39WV7S7QPSOMixedLP7,414new5544
2020-05-06 13:47:21WT8PCWopsTSingle OpQRP100new5557
2020-05-06 00:56:21KX7L7QPSOCWHP22,080new5544
2020-05-04 18:53:37KB7BTO7QPSOSSBLP3,358new5544
2020-05-04 06:20:49W6OAT7QPM/MHP372,252new5544
 (W6RS,W7CD,@W6OAT)
2020-05-04 04:08:36N7KN7QPSOCWLP4,590new5544
2020-05-04 02:21:07K7VAPInQPSingle OpLP252new5545
2020-05-04 02:14:00K7VAPNewEngQPSingle OpLP285new5547
2020-05-04 02:01:54K7VAPDeQPSingle OpLP20new5546
 
2020-05-04 01:41:48K7VAP7QPSO(A)MixedLP32,928new5544
2020-05-03 22:59:50K6KR7QPSOCWHP73,528new5544
2020-05-03 22:21:20W7ZZ7QPSOSSBHP169,000new5544
2020-05-03 21:34:06N7BV7QPSO(A)CWHP181,440new5544
2020-05-03 20:54:37KB7HDX7QPSOMixedHP10,200new5544
2020-05-03 19:47:20W7OM7QPSO(A)MixedLP102,480new5544
2020-05-03 19:46:45N7WA7QPSOCWHP302,103new5544
2020-05-03 19:04:40K7SS7QPSOMixedHP198,976new5544
2020-05-03 18:44:42K7WA7QPSOMixedLP19,080new5544
2020-05-03 18:32:27K6KRNewEngQPSingle OpHP2,304new5547
 
2020-05-03 18:30:47K6KRInQPSingle OpHP32new5545
2020-05-03 18:24:59K7RL7QPSOMixedHP428,820new5544
2020-05-03 17:20:46W7UDH7QPSOCWLP45,594new5544
2020-05-03 17:16:29K7BTW7QPSOMixedHP204,183new5544
2020-05-03 16:06:18K7IDX/7(@K7IDX)7QPCnty Exped SOLP18,904new5544
2020-05-03 07:09:41NN7M7QPSOCWLP58,800new5544
2020-05-03 05:16:02K7HBN7QPSOCWLP103,320new5544
2020-05-03 03:45:51WT8PInQPSingle OpLP4new5545
2020-05-03 03:44:14WT8P7QPSOCWLP4,680new5544
2020-05-02 02:11:30K7VAPSPDX RTTYSOABLP6,848new5520
 
2020-04-30 22:38:28W7OMRYOps WeekSingle OpLP3new5532
2020-04-30 04:07:27WT8PCWopsTSingle OpLP784new5537
2020-04-30 04:06:12K7BTWCWopsTSingle OpHP5,005new5537
2020-04-30 04:02:50W7OMCWopsTSingle OpLP5,372new5537
2020-04-29 20:25:16WT8PCWopsTSingle OpLP121new5536
2020-04-29 20:05:11K7RLCWopsTSingle OpHP26,076new5536
2020-04-29 20:01:29WC7QCWopsTSingle OpHP16,129new5536
2020-04-29 14:01:14W7OMCWopsTSingle OpLP2,448new5535
2020-04-29 13:39:35WT8PCWopsTSingle OpLP100new